Mt. Clemens, MI

3:53 AM EST on November 20, 2019 (GMT -0500)
Selfridge Angb

Weather History for KMTC - October, 2019

Change the Weather History Date:

Monday, October 21, 2019

  Actual Average Record
Temperature  
Mean Temperature 53 °F -  
Max Temperature 63 °F 57 °F 79 °F (2007)
Min Temperature 43 °F 41 °F 23 °F (1952)
Degree Days  
Heating Degree Days 12    
Growing Degree Days 3 (Base 50)    
Moisture  
Dew Point 54 °F    
Average Humidity 96    
Maximum Humidity 100    
Minimum Humidity 72    
Precipitation  
Precipitation 0.19 in - - ()
Sea Level Pressure  
Sea Level Pressure 29.83 in    
Wind  
Wind Speed 8 mph (ESE)    
Max Wind Speed 21 mph    
Max Gust Speed 28 mph    
Visibility 8 miles    
Events Rain    
Averages and records for this station are not official NWS values.
T = Trace of Precipitation, MM = Missing Value Source: NWS Daily Summary

Daily Weather History Graph

Daily Weather History Graph

Search for Another Location

Airport or City:

Astronomy

Oct. 21, 2019 Rise Set
Actual Time 7:51 AM EDT 6:39 PM EDT
Civil Twilight 7:22 AM EDT 7:08 PM EDT
Nautical Twilight 6:49 AM EDT 7:41 PM EDT
Astronomical Twilight 6:17 AM EDT 8:14 PM EDT
Moon No Moon Rise 3:13 PM EDT (10/21)
Length of Visible Light 11h 46m
Length of Day
10h 48m
Waning Gibbous, 48% of the Moon is Illuminated
Oct 21
Waning Gibbous
Oct 27
New
Nov 4
First Quarter
Nov 12
Full
Nov 19
Last Quarter

Hourly Weather History & Observations

Time (EDT) Temp. Windchill Dew Point Humidity Pressure Visibility Wind Dir Wind Speed Gust Speed Precip Events Conditions
12:56 AM 46.2 °F - 46.2 °F 100% 30.00 in 10.0 mi Calm Calm - N/A   Clear
1:56 AM 46.2 °F - 46.2 °F 100% 30.00 in 10.0 mi Calm Calm - N/A   Clear
2:56 AM 43.2 °F 41.5 °F 43.2 °F 100% 29.99 in 8.0 mi North 3.5 mph - N/A   Clear
3:56 AM 43.7 °F 42.1 °F 43.7 °F 100% 29.99 in 10.0 mi NNE 3.5 mph - N/A   Clear
4:56 AM 44.6 °F - 44.6 °F 100% 29.97 in 10.0 mi Calm Calm - N/A   Clear
5:56 AM 43.0 °F 40.3 °F 43.0 °F 100% 29.98 in 8.0 mi NNW 4.6 mph - N/A   Mostly Cloudy
6:56 AM 47.3 °F - 47.3 °F 100% 29.98 in 10.0 mi Calm Calm - N/A   Overcast
7:56 AM 50.2 °F - 50.2 °F 100% 29.95 in 2.0 mi NE 6.9 mph - N/A   Overcast
8:26 AM 50.0 °F - 50.0 °F 100% 29.94 in 1.5 mi ENE 5.8 mph - N/A   Overcast
8:35 AM 50.0 °F - 50.0 °F 100% 29.93 in 2.0 mi ENE 6.9 mph - N/A   Overcast
8:56 AM 51.1 °F - 51.1 °F 100% 29.94 in 2.5 mi East 6.9 mph - N/A   Mostly Cloudy
9:20 AM 51.8 °F - 51.8 °F 100% 29.92 in 3.0 mi ENE 4.6 mph - N/A   Mostly Cloudy
9:56 AM 54.5 °F - 54.5 °F 100% 29.94 in 10.0 mi East 8.1 mph - N/A   Overcast
10:56 AM 59.2 °F - 59.2 °F 100% 29.89 in 10.0 mi ESE 13.8 mph 21.9 mph N/A   Overcast
11:56 AM 61.0 °F - 60.4 °F 98% 29.88 in 10.0 mi ESE 15.0 mph - N/A   Overcast
12:59 PM 61.9 °F - 56.3 °F 82% 29.86 in 10.0 mi ESE 16.1 mph 26.5 mph N/A   Overcast
1:56 PM 62.8 °F - 54.3 °F 74% 29.81 in 10.0 mi ESE 16.1 mph - N/A   Overcast
2:56 PM 63.1 °F - 54.3 °F 73% 29.80 in 10.0 mi ESE 13.8 mph - N/A   Mostly Cloudy
3:23 PM 62.6 °F - 53.6 °F 72% 29.78 in 10.0 mi ESE 16.1 mph - N/A Rain Light Rain
3:55 PM 60.4 °F - 57.2 °F 89% 29.76 in 7.0 mi ESE 18.4 mph - 0.01 in Rain Light Rain
4:55 PM 59.4 °F - 57.9 °F 95% 29.72 in 7.0 mi ESE 20.7 mph 27.6 mph 0.05 in Rain Light Rain
5:51 PM 59.0 °F - 59.0 °F 100% 29.71 in 10.0 mi ESE 18.4 mph 27.6 mph N/A   Overcast
5:55 PM 59.4 °F - 58.3 °F 96% 29.71 in 10.0 mi ESE 19.6 mph - 0.00 in   Overcast
6:47 PM 59.0 °F - 59.0 °F 100% 29.71 in 10.0 mi SE 15.0 mph - N/A Rain Light Rain
6:55 PM 58.8 °F - 58.8 °F 100% 29.71 in 10.0 mi ESE 11.5 mph - 0.00 in Rain Light Rain
7:55 PM 59.4 °F - 59.0 °F 99% 29.68 in 10.0 mi ESE 16.1 mph 20.7 mph 0.01 in Rain Light Rain
8:55 PM 59.7 °F - 59.7 °F 100% 29.67 in 10.0 mi SE 17.3 mph 23.0 mph 0.02 in Rain Light Rain
9:58 PM 60.1 °F - 60.1 °F 100% 29.67 in 7.0 mi SSE 13.8 mph - 0.05 in Rain Light Rain
10:56 PM 59.5 °F - 59.5 °F 100% 29.65 in 10.0 mi SSE 19.6 mph - 0.05 in Rain Light Rain
10:57 PM 59.0 °F - 59.0 °F 100% 29.65 in 10.0 mi SSE 20.7 mph - N/A   Mostly Cloudy
11:56 PM 58.6 °F - 58.6 °F 100% 29.65 in 10.0 mi South 13.8 mph - N/A   Scattered Clouds